Regional Weather Roundup
Issued by NWS

Home | Current Version | Previous Version | Graphics & Text | Print | Product List | Glossary On
Versions: 1 2 3 4 5 6 7 8 9 10 11 12 13 14 15 16 17 18 19 20 21 22 23 24 25 26 27 28 29 30 31 32 33 34 35 36 37 38 39 40 41 42 43 44 45 46 47 48 49 50
000
ASUS45 KBOU 181207
RWRCO

WEATHER ROUNDUP FOR COLORADO
NATIONAL WEATHER SERVICE DENVER/BOULDER CO
600 AM MDT THU SEP 18 2014

NOTE: "FAIR" INDICATES FEW OR NO CLOUDS BELOW 12000 FEET WITH NO
SIGNIFICANT WEATHER AND/OR OBSTRUCTIONS TO VISIBILITY.

COZ001>005-013-030-031-181300-
...NORTHWEST COLORADO...

CITY           SKY/WX    TMP DP  RH WIND       PRES   REMARKS
CRAIG          CLEAR     39  34  82 CALM      30.13R
HAYDEN         CLEAR     48  36  61 SE14      30.14S
MEEKER         NOT AVBL
MOUNT WERNER   NOT AVBL
STEAMBOAT SPGS CLEAR     44  37  77 NW3       30.17S
WALDEN         CLEAR     34  30  86 SE3       30.27R
$$

COZ006>008-011-181300-
...WEST CENTRAL VALLEYS...

CITY           SKY/WX    TMP DP  RH WIND       PRES   REMARKS
GRAND JUNCTION CLEAR     59  40  49 E8        30.02R
MONTROSE       CLEAR     54  42  64 SE8       30.12R
EAGLE          CLEAR     43  37  81 E3        30.23R
RIFLE          CLEAR     49  40  71 CALM      30.10S
DELTA          CLEAR     56  42  60 NE6       30.08R
NUCLA          CLEAR     52  43  71 E9        30.15S
$$

COZ017>023-064>068-181300-
...SOUTHWEST COLORADO...

CITY           SKY/WX    TMP DP  RH WIND       PRES   REMARKS
DURANGO        CLEAR     47  43  86 CALM      30.16S
CORTEZ         CLEAR     45  44  97 NE5       30.12S
PAGOSA SPRINGS CLEAR     43  40  90 CALM      30.23S
TELLURIDE      NOT AVBL
WOLF CREEK PAS CLEAR     43  32  65 NE5       30.50S
$$

COZ009-010-012-014-032>034-037-058>063-181300-
...CENTRAL COLORADO...

CITY           SKY/WX    TMP DP  RH WIND       PRES   REMARKS
ASPEN          CLEAR     45  35  68 S6        30.24R
BUENA VISTA    PTCLDY    47  35  62 NW9       30.28S
COPPER MTN     CLEAR     50  28  43 S15       30.53S
BERTHOUD PASS  FAIR      43  41  93 MISG      30.57S
COTTONWOOD PAS PTCLDY    55  32  41 W7        30.38S
GUNNISON       PTCLDY    39  32  75 CALM      30.29S
KREMMLING      CLEAR     34  32  93 CALM      30.28R
LEADVILLE      CLEAR     36  31  82 CALM      30.38S
MONARCH PASS   CLEAR     46  32  57 CALM      30.61F
SALIDA         PTCLDY    51  37  56 NW5       30.33R
SUNLIGHT       CLEAR     52  32  46 CALM      30.44S
WILKERSON PASS NOT AVBL
$$

COZ069>075-181300-
...SAN LUIS VALLEY/SANGRE DE CRISTO MOUNTAINS...

CITY           SKY/WX    TMP DP  RH WIND       PRES   REMARKS
ALAMOSA        PTCLDY    38  34  85 CALM      30.24R
LA VETA PASS   NOT AVBL
SAGUACHE       PTCLDY    45  34  65 N10       30.26S
$$

COZ035-036-038>040-181300-
...NORTHERN COLORADO FRONT RANGE...

CITY           SKY/WX    TMP DP  RH WIND       PRES   REMARKS
DENVER INTL AP PTCLDY    59  42  53 SW12      30.04S
DMNS CITY PARK   N/A     58  42  56 S2        30.05R
AURORA         PTCLDY    56  42  60 CALM      30.07R
FRONT RANGE AP NOT AVBL
ERIE MUNI ARPT CLEAR     48  44  87 CALM      30.03S
BOULDER MUN AP CLEAR     55  43  62 CALM      30.03S
CENTENNIAL     PTCLDY    55  42  61 CALM      30.08R
BROOMFIELD     CLEAR     63  36  36 W3        30.06S
FORT COLLINS   CLEAR     52  45  76 CALM      30.04S
LONGMONT       CLEAR     51  44  77 CALM      30.04S HAZE
$$

COZ041-046-047-076>085-087-088-181300-
...PIKES PEAK/PALMER DIVIDE AND SOUTHERN FOOTHILLS...

CITY           SKY/WX    TMP DP  RH WIND       PRES   REMARKS
COLO. SPRINGS  CLEAR     56  38  50 NW5       30.11S
A. F. ACADEMY  CLEAR     49  39  69 N10       30.13S
ELLICOTT       NOT AVBL
FALCON         CLEAR     53  39  60 NW6       30.16R
FORT CARSON    CLEAR     56  39  52 N12       30.08S
LIMON          CLEAR     46  40  79 N7        30.05S
MONUMENT HILL  CLEAR     48  36  61 SW8       30.15S
TRINIDAD       CLEAR     54  36  50 W17       30.08S
$$

COZ042>045-048>051-090-091-181300-
...NORTHEAST COLORADO...

CITY           SKY/WX    TMP DP  RH WIND       PRES   REMARKS
GREELEY ARPT   CLEAR     46  39  76 CALM      30.03R
AKRON          CLEAR     54  44  69 W9        30.00R
BURLINGTON     FOG       51  50  96 CALM      29.98S VSB 1/4
WRAY           FOG      N/A N/A N/A E3        29.96S VSB 1/2
STERLING       CLEAR     50  46  87 W3        29.97R
HOLYOKE        CLOUDY    66  63  88 SE6       29.97R FOG
FORT MORGAN    CLEAR     51  45  81 W12       30.00S
$$

COZ086-089-092>099-181300-
...SOUTHEAST COLORADO...

CITY           SKY/WX    TMP DP  RH WIND       PRES   REMARKS
PUEBLO         CLEAR     54  41  61 W6        30.01R
LA JUNTA       CLEAR     56  43  61 SW9       29.98S
LAMAR          CLEAR     46  44  93 SW6       29.94S
SPRINGFIELD      N/A     54  51  90 SW8       29.99S
$$


USA.gov is the U.S. government's official web portal to all federal, state and local government web resources and services.